Regional Weather Roundup
Issued by NWS Jackson, KY

Home | Current Version | Previous Version | Graphics & Text | Print | Product List | Glossary On
Versions: 1 2 3 4 5 6 7 8 9 10 11 12 13 14 15 16 17 18 19 20 21 22 23 24 25 26 27 28 29 30 31 32 33 34 35 36 37 38 39 40 41 42 43 44 45 46 47 48 49 50
000
ASUS43 KJKL 251511
RWRJKL

EAST KENTUCKY HOURLY WEATHER ROUNDUP
NATIONAL WEATHER SERVICE JACKSON KY
1100 AM EDT SAT OCT 25 2014

NOTE: "FAIR" INDICATES FEW OR NO CLOUDS BELOW 12,000 FEET WITH
NO SIGNIFICANT WEATHER AND/OR OBSTRUCTIONS TO VISIBILITY.

* THESE REPORTS ARE NOT UNDER NWS QUALITY CONTROL AND MAY NOT
  REPORT WEATHER SUCH AS PRECIPITATION AND FOG.

KYZ079-080-083-085-087-088-110-112-115-119-120-251600
...EASTERN KENTUCKY...

CITY           SKY/WX    TMP DP  RH WIND       PRES   REMARKS
JACKSON        SUNNY     54  44  69 CALM      30.07S
LONDON         SUNNY     56  46  69 W6        30.10R
SOMERSET*      PTSUNNY   54  46  76 S3        30.10F
MONTICELLO*    SUNNY     61  51  69 S6        30.10F HAZE
MIDDLESBORO*   MOSUNNY   45  44  96 CALM      30.12F
HARLAN APT*    MOSUNNY   45  45 100 CALM      30.10F
HAZARD APT*    SUNNY     55  46  71 SW5       30.08
BLACK MTN*       N/A     54  45  71 N2          N/A
PIKEVILLE APT* SUNNY     50  45  81 S5        30.08R
BIG SANDY*     SUNNY     53  44  72 SW5       30.07S
MOREHEAD APT*  CLOUDY    55  46  71 SW10      30.07S
$$

KYZ035-036-041-042-044-050-067-078-099-251600
...CENTRAL KENTUCKY...

CITY           SKY/WX    TMP DP  RH WIND       PRES   REMARKS
MT STERLING*   CLOUDY    54  48  82 SW6       30.06F
FLEMING/MASON* CLOUDY    55  48  76 SW6       30.04S
DANVILLE*      CLOUDY    54  48  82 S7        30.07S
RICHMOND*      CLOUDY    55  48  76 S6        30.06F
LEXINGTON      CLOUDY    58  51  78 SW9       30.04F
FRANKFORT      CLOUDY    57  50  77 SW10      30.03S
$$

KYZ091>093-OHZ055-061-077-WVZ005-015-034-035-042-251600
...SOUTHERN OHIO/WEST VIRGINIA...

CITY           SKY/WX    TMP DP  RH WIND       PRES   REMARKS
COVINGTON      CLOUDY    58  50  75 SW8       30.00S
COLUMBUS       CLOUDY    53  46  77 S8        29.96F
DAYTON         PTSUNNY   59  52  77 SW10      29.97F
WILMINGTON     CLOUDY    57  50  77 SW15      29.98S
HUNTINGTON     PTSUNNY   53  45  74 S8        30.04S
CHARLESTON     MOSUNNY   54  45  71 SW3       30.05R
PINEVILLE*     SUNNY     48  48 100 MISG      30.13S
BECKLEY        SUNNY     52  40  63 W8        30.06S
BLUEFIELD      SUNNY     54  39  57 W10       30.08F
$$

VAZ002-007-008-TNZ017-027-036-066-071-251600
...SOUTHWEST VIRGINIA/EAST TENNESSEE...

CITY           SKY/WX    TMP DP  RH WIND       PRES   REMARKS
WISE*          SUNNY     55  45  67 W6        30.10S
JONESVILLE*    SUNNY     50  41  71 CALM      30.13F
ABINGDON*      SUNNY     55  45  68 W8        30.11S
BRISTOL        SUNNY     50  44  80 CALM      30.12S
KNOXVILLE      SUNNY     52  44  74 S3        30.11F
OAK RIDGE      SUNNY     54  47  77 CALM      30.12F
CROSSVILLE     SUNNY     61  48  62 W5        30.11F
NASHVILLE      MOSUNNY   59  52  77 S3        30.09F
$$

...KEY TO REMARKS...
VSB - VISIBILITY IN MILES
WCI - WIND CHILL INDEX
HX  - HEAT INDEX

$$



USA.gov is the U.S. government's official web portal to all federal, state and local government web resources and services.